COSMOS 928

导读

COSMOS 928是前苏联(CIS)“宇宙”(COSMOS)系列卫星,于1977年7月13日发射入轨。宇宙系列卫星涵盖侦察、通信、科学实验等多种用途,多数承担军事与航天技术验证任务,是冷战时期苏联太空活动的重要载体。该卫星的发射体现了苏联在冷战太空竞赛中持续推进航天部署,为其空间技术积累与战略情报收集提供支撑,目前已完成使命陨落,是苏联航天时代的代表性产物之一。

基本信息
目录编号:
10141
目录名称:
COSMOS 928
国际标识:
1977-064A
轨道中心:
EARTH
卫星名称:
COSMOS 928
卫星全名:
--
卫星状态:
在轨 (已飞行17957 天)
发射日期:
1977-07-13 UTC
国别 :
俄罗斯(独联体) (CIS)
星等 :
--
该卫星已列入 空间交会检测服务 Space Conjunction Data Service (SCDS) ,当前飞行风险评估等级: 无高风险
轨道信息
数据来源 国际轨道数据 AOE轨道数据
星历时间 2026-09-10T22:41:01+0800
16小时前
查看轨道信息
2026-09-05T12:00:00+0800
6天前
查看轨道信息
半长轴 7352.996km 7353.003km
偏心率 0.0038961 0.0039199
轨道倾角 82.962° 82.964°
近地点辐角 125.001° 140.031°
升交点赤经 74.717° 78.755°
平近点角 235.481° 244.707°
近地点 946.21km 946.042km
远地点 1003.508km 1003.69km
周期 104.582分钟 104.582分钟
每日圈数 13.769125 13.769103
详细信息
使用方式:
暂无
2D轨道图
3D轨道图
轨道高度分析图
轨道倾角分析图
轨道综合分析图
查看轨道综合分析图
与全量物体交会距离演化趋势
与全量物体交会风险概率演化趋势